Tucson, AZ

6:34 AM MST on May 24, 2017 (GMT -0700)
Tucson International

Weather History for KTUS - December, 2010

Change the Weather History Date:

Thursday, December 2, 2010

  Actual Average Record
Temperature  
Mean Temperature 61 °F 54 °F  
Max Temperature 81 °F 67 °F 85 °F (1911)
Min Temperature 40 °F 41 °F 28 °F (1905)
Degree Days  
Heating Degree Days 4 11  
Month to date heating degree days 18 22  
Since 1 July heating degree days 257 228  
Cooling Degree Days 0 0  
Month to date cooling degree days 0 0  
Year to date cooling degree days 3351 3146  
Growing Degree Days 10 (Base 50)    
Moisture  
Dew Point -1 °F    
Average Humidity 11    
Maximum Humidity 19    
Minimum Humidity 3    
Precipitation  
Precipitation 0.00 in 0.02 in 0.99 in (1906)
Month to date precipitation 0.00 0.05  
Year to date precipitation 10.67 10.71  
Snow  
Snow 0.00 in - - ()
Month to date snowfall 0.0  
Snow Depth 0.00 in    
Sea Level Pressure  
Sea Level Pressure 30.07 in    
Wind  
Wind Speed 6 mph (SE)    
Max Wind Speed 15 mph    
Max Gust Speed 18 mph    
Visibility 10 miles    
Events      
T = Trace of Precipitation, MM = Missing Value Source: NWS Daily Summary

Daily Weather History Graph

Daily Weather History Graph

Search for Another Location

Airport or City:

Trip Planner

Search our weather history database for the weather conditions in past years. The results will help you decide how hot, cold, wet, or windy it might be!

Date:

Astronomy

Dec. 02, 2010 Rise Set
Actual Time 7:07 AM MST 5:18 PM MST
Civil Twilight 6:40 AM MST 5:45 PM MST
Nautical Twilight 6:10 AM MST 6:15 PM MST
Astronomical Twilight 5:40 AM MST 6:45 PM MST
Moon 3:54 AM MST (12/2) 2:53 PM MST (12/2)
Length of Visible Light 11h 04m
Length of Day
10h 11m
Waning Crescent, 11% of the Moon is Illuminated
Dec 2
Waning Crescent
Dec 5
New
Dec 13
First Quarter
Dec 21
Full
Dec 27
Last Quarter

Hourly Weather History & Observations

Time (MST) Temp. Windchill Dew Point Humidity Pressure Visibility Wind Dir Wind Speed Gust Speed Precip Events Conditions
12:53 AM 43.0 °F 38.8 °F 1.9 °F 18% 30.07 in 10.0 mi SSE 6.9 mph - N/A   Clear
1:53 AM 42.1 °F 38.4 °F 1.0 °F 18% 30.07 in 10.0 mi SSE 5.8 mph - N/A   Clear
2:53 AM 42.1 °F 37.1 °F 1.0 °F 18% 30.07 in 10.0 mi SSE 8.1 mph - N/A   Clear
3:53 AM 45.0 °F 40.1 °F 1.0 °F 16% 30.06 in 10.0 mi SSE 9.2 mph - N/A   Clear
4:53 AM 39.9 °F 33.9 °F -0.0 °F 19% 30.07 in 10.0 mi SE 9.2 mph - N/A   Clear
5:53 AM 44.1 °F 38.1 °F -0.9 °F 15% 30.08 in 10.0 mi ESE 11.5 mph - N/A   Clear
6:53 AM 44.1 °F 37.7 °F -2.0 °F 15% 30.10 in 10.0 mi SE 12.7 mph - N/A   Clear
7:53 AM 46.0 °F 41.0 °F -0.9 °F 14% 30.14 in 10.0 mi SE 10.4 mph - N/A   Clear
8:53 AM 54.0 °F - -0.9 °F 11% 30.14 in 10.0 mi SSE 12.7 mph - N/A   Clear
9:53 AM 61.0 °F - -2.0 °F 8% 30.14 in 10.0 mi SSE 9.2 mph - N/A   Clear
10:53 AM 64.9 °F - -2.0 °F 7% 30.14 in 10.0 mi SSW 3.5 mph - N/A   Clear
11:53 AM 73.0 °F - -2.0 °F 5% 30.08 in 10.0 mi Calm Calm - N/A   Clear
12:53 PM 75.9 °F - -6.0 °F 4% 30.05 in 10.0 mi SSE 3.5 mph - N/A   Clear
1:53 PM 79.0 °F - -8.0 °F 4% 30.02 in 10.0 mi Calm Calm - N/A   Clear
2:53 PM 79.0 °F - -9.0 °F 4% 30.00 in 10.0 mi Calm Calm - N/A   Clear
3:53 PM 80.1 °F - -5.1 °F 4% 29.99 in 10.0 mi North 4.6 mph - N/A   Clear
4:53 PM 77.0 °F - -2.0 °F 5% 30.01 in 10.0 mi NNE 3.5 mph - N/A   Clear
5:53 PM 70.0 °F - 3.0 °F 7% 30.02 in 10.0 mi North 6.9 mph - N/A   Clear
6:53 PM 64.9 °F - 3.9 °F 9% 30.04 in 10.0 mi NW 3.5 mph - N/A   Clear
7:53 PM 57.0 °F - 5.0 °F 12% 30.06 in 10.0 mi SSE 4.6 mph - N/A   Clear
8:53 PM 57.0 °F - 1.9 °F 11% 30.06 in 10.0 mi SSE 3.5 mph - N/A   Clear
9:53 PM 48.9 °F - -0.0 °F 13% 30.07 in 10.0 mi SSE 8.1 mph - N/A   Clear
10:53 PM 48.9 °F - -0.9 °F 13% 30.06 in 10.0 mi ESE 9.2 mph - N/A   Clear
11:53 PM 48.0 °F - -0.0 °F 14% 30.06 in 10.0 mi SSE 6.9 mph - N/A   Clear